TimeCST,TemperatureF,Dew PointF,Humidity,Sea Level PressureIn,VisibilityMPH,Wind Direction,Wind SpeedMPH,Gust SpeedMPH,PrecipitationIn,Events,Conditions,WindDirDegrees,DateUTC
12:15 AM,53.6,35.6,51,30.02,10.0,SE,11.5,-,N/A,,Overcast,130,2013-03-09 06:15:00
12:35 AM,53.6,35.6,51,30.02,10.0,SE,12.7,17.3,N/A,,Overcast,130,2013-03-09 06:35:00
12:55 AM,53.6,35.6,51,30.02,10.0,SE,9.2,-,N/A,,Overcast,130,2013-03-09 06:55:00
1:15 AM,53.6,35.6,51,30.02,10.0,SE,6.9,-,N/A,,Overcast,130,2013-03-09 07:15:00
1:35 AM,53.6,35.6,51,30.00,10.0,ESE,10.4,18.4,N/A,,Overcast,120,2013-03-09 07:35:00
1:55 AM,53.6,35.6,51,29.99,10.0,SE,11.5,19.6,N/A,,Overcast,130,2013-03-09 07:55:00
2:15 AM,53.6,35.6,51,29.98,10.0,SE,11.5,18.4,N/A,,Overcast,130,2013-03-09 08:15:00
2:35 AM,53.6,35.6,51,29.96,10.0,SE,13.8,18.4,N/A,,Overcast,140,2013-03-09 08:35:00
2:55 AM,53.6,35.6,51,29.96,10.0,SE,10.4,18.4,N/A,,Overcast,140,2013-03-09 08:55:00
3:15 AM,53.6,35.6,51,29.96,10.0,SE,8.1,-,N/A,,Mostly Cloudy,140,2013-03-09 09:15:00
3:35 AM,51.8,35.6,54,29.96,10.0,SE,6.9,-,N/A,,Mostly Cloudy,130,2013-03-09 09:35:00
3:55 AM,51.8,35.6,54,29.96,10.0,SE,8.1,-,N/A,,Overcast,140,2013-03-09 09:55:00
4:15 AM,51.8,35.6,54,29.96,10.0,SE,4.6,-,N/A,,Overcast,130,2013-03-09 10:15:00
4:35 AM,50.0,35.6,58,29.96,10.0,SE,3.5,-,N/A,,Mostly Cloudy,130,2013-03-09 10:35:00
4:55 AM,50.0,35.6,58,29.97,10.0,Calm,Calm,-,N/A,,Mostly Cloudy,0,2013-03-09 10:55:00
5:15 AM,51.8,35.6,54,29.96,10.0,SE,3.5,-,N/A,,Mostly Cloudy,140,2013-03-09 11:15:00
5:35 AM,50.0,35.6,58,29.95,10.0,SE,3.5,-,N/A,,Scattered Clouds,130,2013-03-09 11:35:00
5:55 AM,50.0,35.6,58,29.94,10.0,ESE,3.5,-,N/A,,Clear,120,2013-03-09 11:55:00
6:15 AM,48.2,35.6,62,29.94,10.0,ESE,3.5,-,N/A,,Clear,120,2013-03-09 12:15:00
6:35 AM,48.2,37.4,66,29.93,10.0,SE,5.8,-,N/A,,Clear,130,2013-03-09 12:35:00
6:55 AM,46.4,37.4,71,29.93,10.0,SE,6.9,-,N/A,,Clear,130,2013-03-09 12:55:00
7:15 AM,50.0,37.4,62,29.94,10.0,SE,4.6,-,N/A,,Scattered Clouds,140,2013-03-09 13:15:00
7:35 AM,51.8,37.4,58,29.95,10.0,Calm,Calm,-,N/A,,Mostly Cloudy,0,2013-03-09 13:35:00
7:55 AM,51.8,39.2,62,29.95,10.0,SE,5.8,-,N/A,,Overcast,140,2013-03-09 13:55:00
8:15 AM,53.6,41.0,62,29.95,10.0,SSE,8.1,-,N/A,,Overcast,150,2013-03-09 14:15:00
8:35 AM,53.6,41.0,62,29.93,10.0,SSE,12.7,17.3,N/A,,Mostly Cloudy,150,2013-03-09 14:35:00
8:55 AM,55.4,41.0,58,29.93,10.0,SSE,12.7,18.4,N/A,,Overcast,150,2013-03-09 14:55:00
9:15 AM,57.2,42.8,59,29.92,10.0,SSE,13.8,20.7,N/A,,Overcast,160,2013-03-09 15:15:00
9:35 AM,57.2,44.6,63,29.91,10.0,SSE,17.3,24.2,N/A,,Overcast,160,2013-03-09 15:35:00
9:55 AM,57.2,44.6,63,29.90,10.0,South,12.7,25.3,N/A,,Overcast,170,2013-03-09 15:55:00
10:15 AM,57.2,46.4,67,29.89,10.0,SSE,16.1,20.7,N/A,,Overcast,160,2013-03-09 16:15:00
10:35 AM,59.0,46.4,63,29.87,10.0,SSE,12.7,23.0,N/A,,Mostly Cloudy,150,2013-03-09 16:35:00
10:55 AM,60.8,46.4,59,29.87,10.0,SSE,17.3,24.2,N/A,,Mostly Cloudy,160,2013-03-09 16:55:00
11:15 AM,60.8,46.4,59,29.88,10.0,SSE,16.1,26.5,N/A,,Mostly Cloudy,160,2013-03-09 17:15:00
11:35 AM,60.8,46.4,59,29.87,10.0,SSE,11.5,20.7,N/A,,Mostly Cloudy,160,2013-03-09 17:35:00
11:55 AM,59.0,46.4,63,29.86,7.0,SSE,13.8,21.9,N/A,,Overcast,160,2013-03-09 17:55:00
12:15 PM,59.0,48.2,67,29.84,10.0,SSE,9.2,-,N/A,,Overcast,160,2013-03-09 18:15:00
12:35 PM,59.0,50.0,72,29.84,10.0,SSE,11.5,23.0,N/A,,Overcast,150,2013-03-09 18:35:00
12:55 PM,60.8,51.8,72,29.83,10.0,SSE,15.0,23.0,N/A,,Mostly Cloudy,160,2013-03-09 18:55:00
1:15 PM,59.0,51.8,77,29.82,7.0,SSE,13.8,20.7,N/A,,Mostly Cloudy,160,2013-03-09 19:15:00
1:35 PM,59.0,51.8,77,29.81,7.0,SSE,11.5,23.0,N/A,,Mostly Cloudy,160,2013-03-09 19:35:00
1:55 PM,59.0,51.8,77,29.80,10.0,SSE,15.0,20.7,N/A,,Mostly Cloudy,150,2013-03-09 19:55:00
2:15 PM,59.0,53.6,82,29.78,3.0,SSE,8.1,19.6,N/A,,Overcast,150,2013-03-09 20:15:00
2:35 PM,59.0,53.6,82,29.78,7.0,SSE,11.5,16.1,N/A,,Mostly Cloudy,160,2013-03-09 20:35:00
2:55 PM,59.0,53.6,82,29.78,10.0,SSE,11.5,-,N/A,,Mostly Cloudy,150,2013-03-09 20:55:00
3:15 PM,59.0,53.6,82,29.77,10.0,SSE,8.1,-,N/A,,Mostly Cloudy,150,2013-03-09 21:15:00
3:35 PM,59.0,53.6,82,29.76,10.0,SSE,9.2,-,N/A,,Mostly Cloudy,150,2013-03-09 21:35:00
3:55 PM,59.0,53.6,82,29.75,10.0,SSE,10.4,20.7,N/A,,Mostly Cloudy,160,2013-03-09 21:55:00
4:15 PM,59.0,53.6,82,29.76,7.0,SSE,10.4,20.7,N/A,,Overcast,160,2013-03-09 22:15:00
4:35 PM,59.0,55.4,88,29.74,5.0,SSE,10.4,19.6,N/A,,Mostly Cloudy,150,2013-03-09 22:35:00
4:55 PM,59.0,55.4,88,29.74,7.0,SSE,11.5,20.7,N/A,,Scattered Clouds,150,2013-03-09 22:55:00
5:15 PM,59.0,55.4,88,29.73,10.0,SSE,11.5,18.4,N/A,,Mostly Cloudy,150,2013-03-09 23:15:00
5:35 PM,59.0,55.4,88,29.71,7.0,SE,13.8,17.3,N/A,,Mostly Cloudy,140,2013-03-09 23:35:00
5:55 PM,59.0,55.4,88,29.71,7.0,SE,11.5,17.3,N/A,,Mostly Cloudy,140,2013-03-09 23:55:00
6:15 PM,59.0,55.4,88,29.72,5.0,SE,10.4,17.3,N/A,,Overcast,140,2013-03-10 00:15:00
6:35 PM,57.2,55.4,94,29.73,5.0,SSE,11.5,-,0.01,,Overcast,150,2013-03-10 00:35:00
6:55 PM,57.2,55.4,94,29.72,7.0,SE,9.2,-,0.01,,Overcast,140,2013-03-10 00:55:00
7:15 PM,57.2,55.4,94,29.71,7.0,SE,11.5,19.6,N/A,,Mostly Cloudy,130,2013-03-10 01:15:00
7:35 PM,57.2,55.4,94,29.70,7.0,SE,11.5,-,N/A,,Mostly Cloudy,130,2013-03-10 01:35:00
7:55 PM,57.2,55.4,94,29.69,5.0,SE,13.8,21.9,N/A,,Mostly Cloudy,140,2013-03-10 01:55:00
8:15 PM,59.0,55.4,88,29.69,4.0,SSE,16.1,21.9,0.02,,Overcast,150,2013-03-10 02:15:00
8:55 PM,59.0,55.4,88,29.68,2.5,SE,13.8,19.6,0.14,,Overcast,130,2013-03-10 02:55:00
9:15 PM,59.0,55.4,88,29.71,3.0,SSE,6.9,16.1,0.04,,Overcast,160,2013-03-10 03:15:00
9:35 PM,59.0,55.4,88,29.75,1.2,WNW,19.6,-,0.24,,Overcast,290,2013-03-10 03:35:00
9:55 PM,53.6,51.8,94,29.74,4.0,Calm,Calm,-,0.34,,Mostly Cloudy,0,2013-03-10 03:55:00
10:15 PM,53.6,53.6,100,29.77,2.0,WSW,6.9,-,0.10,,Overcast,250,2013-03-10 04:15:00
10:35 PM,53.6,51.8,94,29.75,2.5,Calm,Calm,-,0.18,,Overcast,0,2013-03-10 04:35:00
10:55 PM,53.6,51.8,94,29.72,10.0,ESE,4.6,-,0.19,,Scattered Clouds,110,2013-03-10 04:55:00
11:15 PM,51.8,51.8,100,29.71,10.0,SE,3.5,-,N/A,,Scattered Clouds,140,2013-03-10 05:15:00
11:35 PM,51.8,51.8,100,29.71,10.0,SE,5.8,-,N/A,,Scattered Clouds,140,2013-03-10 05:35:00
11:55 PM,51.8,51.8,100,29.74,10.0,SSE,8.1,-,N/A,,Mostly Cloudy,150,2013-03-10 05:55:00